Regional Weather Roundup
Issued by NWS Newport/Morehead, NC

Current Version | Previous Version | Text Only | Print | Product List | Glossary Off
Versions: 1 2 3 4 5 6 7 8 9 10 11 12 13 14 15 16 17 18 19 20 21 22 23 24 25 26 27 28 29 30 31 32 33 34 35 36 37 38 39 40 41 42 43 44 45 46 47 48 49 50
000 ASUS42 KMHX 240725 RWRMHX WEATHER ROUNDUP FOR EASTERN NORTH CAROLINA NATIONAL WEATHER SERVICE NEWPORT/MOREHEAD CITY NC 300 AM EDT SUN SEP 24 2017 NOTE: "FAIR" INDICATES FEW OR NO CLOUDS BELOW 12,000 FEET WITH NO SIGNIFICANT WEATHER AND/OR OBSTRUCTIONS TO VISIBILITY NCZ015>017-031-032-045>047-102-103-240800- NORTH COAST CITY SKY/WX TMP DP RH WIND PRES REMARKS EDENTON CLEAR 68 66 94 CALM 30.04F ELIZABETH CITY CLEAR 71 69 93 E3 30.03F KITTY HAWK MOSUNNY 69 64 84 CALM 30.02S MANTEO MOCLDY 70 66 88 E7 30.03S $$ NCZ045>047-081-094-103-104-240800- CENTRAL COAST CITY SKY/WX TMP DP RH WIND PRES REMARKS FRISCO MOCLDY 72 69 90 E7 30.02S $$ NCZ095-097-098-100-101-240800- SOUTHERN COAST CITY SKY/WX TMP DP RH WIND PRES REMARKS BEAUFORT PTCLDY 73 71 93 NE9 30.01S CEDAR ISLAND NOT AVBL JACKSONVILLE PTCLDY 71 70 96 NE7 30.02R PINEY ISLAND N/A N/A N/A N/A NE13 30.01S WILMINGTON CLEAR 70 68 93 NE7 30.01S $$ NCZ011>013-027>030-043-044-078>080-089-090>093-098-240800- COASTAL PLAIN CITY SKY/WX TMP DP RH WIND PRES REMARKS AHOSKIE PTCLDY 63 63 100 CALM 30.04F CLINTON CLEAR 69 68 96 CALM 30.04S ELIZABETHTOWN NOT AVBL GOLDSBORO PTCLDY 68 68 100 CALM 30.02F GREENVILLE N/A 64 64 100 CALM 30.06S FOG HAVELOCK PTCLDY 73 70 90 NE8 30.02F KENANSVILLE CLEAR 64 64 100 CALM 30.04S FOG KINSTON CLEAR 66 65 94 CALM 30.04F NEW BERN PTCLDY 71 69 93 NE6 30.03F RICHLANDS CLEAR 66 65 96 CALM 30.03S ROCKY MOUNT PTCLDY 66 66 100 CALM 30.05F WASHINGTON CLEAR 66 65 96 CALM 30.04S WHITEVILLE CLEAR 67 66 96 CALM 30.01S $$ AMZ130-135-150-152-154-156-158-170-250-252-270-ANZ085-086-088-633-658-670-240800- MARINE OBSERVATIONS STATION/POSITION TIME TEMP WIND PRES WAVE SWELL AIR SEA DIR/SP/G HT/PER HT/PER (UTC) (F) (DEG/KT/KT) (MB) (FT/S) (FT/S) CHESAPEAKE LIGHT NOT AVBL 64 E VA BEACH 0650 69 69 350/ 6/ 8 1016.9 9/13 10/13 DUCK 0700 72 76 60/ 10/ 11 1016.4 2 E DUCK 0700 76 N/A 5/15 3/15 OREGON INLET 0700 71 78 40/ 8/ 10 1016.5 13E OREGON INLT 0648 74 N/A 6/13 7/13 HATTERAS CG 0700 72 79 50/ 7/ 10 1016.3 DIAMOND BUOY 0650 73 75 30/ 14/ 17 1015.7 8/14 7/14 CAPE LOOKOUT 0700 74 60/ 17/ 19 1015.7 BEAUFORT LAB 0700 74 77 50/ 5/ 9 1015.5 30 SE NEW RVR IN 0708 76 60/ 16/ 19 1015.3 30 SE NEW RVR IN NOT AVBL 27 SE WRIGHTSVLE 0708 77 80 80/ 17/ 25 1014.9 5 SE WRIGHTSVLE 0708 77 79 70/ 14/ 21 1015.5 225 S CAPE HAT 0650 78 80 50/ 21/ 25 1010.7 15/14 13/14 41 SE CHARLESTON 0710 80 82 50/ 14/ 17 1013.3 $$

USA.gov is the U.S. government's official web portal to all federal, state and local government web resources and services.